Theta_e
300 300 299 300 299 299 300 299 300 300 300 303 304 305 311 316 312 306 304 303 305 310 311 309 311 311 303 300 302 305 307 305 303 304 303 302 302 303 304 303 301 302 301 302 302 302 303 303 302 302 303 301 299 298 296 296 296 298 300 299 297 297 299 301 304 304 302 299 296 296 298 298 300 299 297 297 299 299 302 304 301 301 302 300 301 303 295
299 300 299 299 299 299 300 299 299 299 300 304 305 307 315 316 310 308 304 300 307 310 304 307 312 309 305 305 303 303 305 306 305 304 305 303 301 302 305 302 300 300 301 302 302 301 301 301 300 299 301 301 298 297 297 296 298 298 297 299 298 297 299 301 304 308 308 306 304 304 303 300 299 298 294 294 296 298 298 298 299 300 298 296 300 302 295
299 299 299 299 299 299 300 299 299 299 300 304 305 306 312 310 305 308 307 300 306 311 309 312 316 311 308 304 302 304 304 304 304 304 305 303 300 301 302 300 300 301 301 302 303 303 301 300 301 300 300 300 299 299 297 296 299 299 297 298 298 297 299 300 301 304 306 306 305 304 302 298 296 294 292 293 296 297 297 298 302 302 296 294 298 299 293
299 299 299 300 299 299 300 299 299 300 300 305 306 301 306 309 304 311 318 310 304 304 305 312 317 310 307 303 301 304 305 303 302 303 303 302 300 301 301 300 301 302 302 304 307 306 301 300 302 302 302 301 298 298 298 298 300 300 298 297 297 299 299 298 302 304 303 302 300 298 299 299 297 294 292 292 293 293 296 300 301 297 295 296 295 293 292
299 299 299 300 299 299 299 299 299 300 301 305 306 302 305 312 307 306 313 313 311 311 309 311 311 304 304 303 300 303 307 304 302 302 301 301 300 301 302 302 302 302 302 303 304 305 302 301 301 300 301 301 299 297 298 299 299 299 298 296 297 300 299 297 300 301 297 297 295 293 295 294 293 292 292 292 292 293 296 298 294 292 295 298 292 289 291
299 300 300 299 299 299 299 299 299 301 303 303 307 308 306 307 305 301 301 304 308 309 306 309 310 305 304 303 301 305 308 305 303 302 300 301 301 301 302 303 302 302 302 300 301 304 304 302 301 299 298 300 302 300 298 298 298 298 298 297 297 300 299 296 298 297 293 292 291 290 291 290 289 290 290 290 292 293 294 292 290 290 294 295 291 289 290
299 300 300 299 300 299 299 300 298 300 304 302 305 309 304 304 305 300 299 303 305 302 300 306 312 308 306 306 303 304 306 304 302 300 300 304 302 300 301 303 303 303 302 300 302 304 303 302 302 300 299 300 301 300 299 298 298 298 299 298 296 298 300 298 298 297 293 291 291 290 290 290 289 289 289 289 290 291 291 291 290 290 291 290 288 288 288
299 300 300 299 300 299 299 300 298 300 304 303 304 305 303 304 305 302 304 308 306 304 304 307 311 308 305 305 302 303 306 304 301 300 300 301 301 300 302 301 302 304 303 302 302 301 300 300 299 298 299 300 299 298 298 297 298 300 300 298 296 296 298 297 297 298 295 292 291 290 290 291 290 289 289 288 288 289 290 291 290 290 291 289 287 287 287
299 300 300 299 300 299 299 300 299 301 303 303 305 304 301 301 301 303 313 312 304 305 306 305 310 309 304 303 302 303 304 302 302 302 300 300 301 301 301 301 302 303 303 303 303 300 298 299 297 297 298 298 297 297 296 296 298 300 299 298 299 299 299 299 300 301 298 293 292 291 289 291 293 291 289 288 289 288 289 289 289 288 289 289 288 288 287
300 300 299 299 299 299 299 299 299 301 303 302 304 304 302 303 300 303 316 313 303 305 306 305 309 305 300 301 302 302 303 302 302 301 300 302 303 300 299 300 302 303 304 303 300 298 298 297 296 296 296 296 296 297 296 295 296 298 298 298 297 298 300 300 300 302 300 294 292 291 291 295 297 292 288 288 288 287 287 288 287 286 287 288 288 287 284
299 299 299 299 299 298 299 299 299 301 301 301 302 301 300 304 303 307 321 316 302 303 306 305 305 301 298 301 301 301 304 304 302 298 299 303 302 299 299 300 301 303 302 298 295 294 295 295 295 296 296 297 297 297 296 294 293 294 296 297 297 297 299 299 297 300 302 297 292 292 296 299 296 289 285 286 288 287 286 287 287 285 285 285 284 283 281
299 300 299 299 299 299 299 299 299 300 300 300 301 300 301 303 302 310 328 319 302 303 307 301 299 300 300 301 302 302 303 304 302 299 299 301 300 299 299 298 300 302 297 293 294 294 293 294 296 297 298 298 297 295 294 293 291 290 291 294 298 299 299 299 297 297 300 298 295 295 298 297 290 286 285 285 287 287 286 286 285 283 282 282 281 281 280
299 299 299 299 300 299 299 300 299 300 300 300 300 301 302 303 301 308 324 319 303 302 303 298 297 300 302 302 304 304 301 300 300 300 300 301 300 301 299 298 299 298 294 294 297 297 297 298 298 298 299 299 298 296 295 293 292 291 290 290 294 298 299 298 296 296 295 296 297 295 292 290 288 287 286 285 286 286 285 286 285 282 281 280 279 280 279
298 299 299 299 299 299 299 300 300 300 300 299 300 300 301 303 302 304 313 316 305 296 296 300 303 301 302 304 304 304 303 301 301 301 300 300 301 300 299 298 297 294 292 294 297 297 298 300 301 300 299 300 299 298 297 295 292 291 291 289 290 296 299 297 295 295 293 295 297 295 291 291 290 288 286 284 285 285 284 286 284 280 279 280 278 278 278
298 299 299 299 299 299 299 299 300 300 300 299 300 301 301 303 304 301 304 312 310 298 294 299 300 296 299 303 302 302 306 306 302 301 300 298 299 299 296 295 294 292 291 294 298 298 297 299 302 302 300 300 299 297 297 297 293 290 290 289 289 290 293 295 295 294 293 294 295 295 297 297 291 286 284 283 284 283 283 285 284 280 279 279 278 278 277
298 298 298 298 299 299 298 299 299 300 301 300 300 301 300 302 304 300 300 307 312 303 295 292 289 288 294 300 299 298 302 303 303 305 307 304 300 298 295 292 292 293 293 296 298 298 299 300 300 301 300 298 297 297 297 297 296 293 291 291 291 290 290 293 296 295 293 294 293 294 298 295 288 284 284 283 283 283 282 284 285 280 278 278 278 277 277
298 298 298 298 299 299 299 300 299 300 301 300 299 300 300 300 302 300 300 304 306 299 290 287 288 289 294 300 300 298 297 299 299 302 306 303 299 299 297 293 292 293 294 297 300 302 304 302 301 303 302 296 295 298 297 296 297 296 293 291 293 293 291 291 293 293 292 292 292 292 293 290 285 283 283 283 282 282 283 287 286 280 277 278 277 276 276
298 298 298 298 298 299 299 299 299 299 300 300 300 300 299 300 301 299 300 303 303 297 288 286 289 291 294 296 297 295 295 298 299 300 303 302 298 298 297 295 295 295 293 296 302 304 303 300 298 300 300 295 294 297 296 295 295 294 291 291 292 293 291 289 290 292 292 292 292 291 289 287 283 283 283 282 282 283 285 287 283 278 278 278 277 276 276
298 298 298 298 298 298 299 299 299 299 299 299 300 299 298 299 299 297 298 300 300 297 290 286 288 290 289 289 291 292 293 295 296 298 303 304 298 294 294 294 295 296 295 298 302 301 300 299 296 296 299 297 294 294 293 293 293 291 290 291 291 291 290 289 290 290 289 288 290 291 289 285 282 282 282 282 284 285 285 283 279 278 278 277 276 276 275
298 298 297 298 298 298 299 298 298 299 298 298 299 298 297 297 298 298 299 298 294 293 289 285 286 288 287 287 291 293 293 294 294 296 299 300 295 295 301 300 296 297 299 300 301 298 298 299 296 295 298 296 293 293 293 291 290 289 289 289 288 287 289 291 290 288 287 288 290 291 289 284 281 282 283 282 283 283 280 278 278 278 277 275 274 274 273
298 298 297 298 298 298 298 298 298 298 298 298 299 298 296 296 297 297 297 296 294 294 292 287 286 286 286 286 287 288 290 292 292 292 295 295 292 295 301 298 295 296 297 296 298 297 295 297 296 295 295 294 292 293 293 293 291 287 286 288 287 285 287 290 289 287 288 291 291 288 286 283 281 282 282 280 280 280 278 277 277 277 275 274 273 273 272
297 297 297 298 298 298 298 298 298 298 298 298 299 298 296 295 295 297 297 296 293 292 291 287 286 286 286 286 286 286 286 287 287 287 290 294 295 294 296 295 294 295 293 294 297 297 295 296 297 296 295 293 292 291 289 292 294 289 286 288 288 286 285 286 287 287 287 288 288 286 283 281 280 279 279 278 278 278 277 276 276 275 274 273 272 272 271
297 297 297 298 298 298 298 297 298 298 297 297 299 298 297 295 295 297 297 294 289 288 288 286 287 288 287 287 287 286 285 285 287 285 285 292 297 295 293 294 294 292 291 292 294 295 297 297 295 295 294 291 292 292 289 290 292 289 287 288 287 284 283 284 285 285 284 284 285 284 282 281 280 278 278 277 277 277 276 275 274 273 272 272 271 271 270
297 297 298 298 298 298 298 298 298 298 298 298 298 298 297 297 297 297 296 294 292 293 292 289 289 291 290 288 288 287 286 286 286 286 284 288 294 296 294 292 290 291 293 291 288 290 294 294 292 294 294 290 291 293 292 291 290 288 287 288 286 283 283 284 285 284 283 284 284 282 281 281 279 278 277 276 276 276 275 274 273 272 271 271 271 270 269
297 297 298 298 298 298 298 298 298 298 298 297 297 298 298 297 297 298 298 297 298 299 298 294 291 290 289 289 288 288 289 288 287 287 287 286 288 293 293 289 288 291 291 288 287 291 295 292 291 295 294 289 290 291 290 290 289 286 287 289 287 283 283 284 284 283 283 284 283 280 280 281 279 276 276 276 275 275 274 273 272 271 271 270 269 269 268
298 298 299 299 299 298 297 298 298 298 298 298 298 298 299 298 297 297 298 296 295 298 299 296 293 291 290 290 290 289 289 290 289 288 289 288 287 288 288 287 287 288 287 285 287 293 295 292 291 294 292 289 290 291 288 287 287 286 287 287 285 283 283 283 283 282 282 283 282 280 280 280 279 277 276 275 274 273 273 272 271 270 270 269 268 268 268
298 299 300 299 298 298 297 298 298 298 298 298 298 298 298 298 298 298 299 297 297 301 302 297 293 291 290 290 290 290 290 290 290 289 289 289 289 288 286 286 286 288 291 290 289 292 295 293 291 291 289 287 287 287 285 284 286 287 287 285 283 283 283 283 282 282 283 283 281 279 279 280 279 277 275 273 273 272 271 271 270 269 269 268 267 267 267
299 299 300 299 298 297 297 298 299 298 298 298 299 299 298 298 298 298 299 298 298 300 301 297 293 292 292 291 291 291 290 290 290 290 290 290 289 289 287 286 287 291 295 295 292 293 295 293 289 288 288 288 288 286 284 284 286 288 287 285 283 283 283 282 282 282 282 282 280 278 278 278 278 276 274 272 272 271 270 270 269 268 268 267 266 266 266
298 299 299 299 299 298 297 298 298 298 298 298 298 298 298 297 297 298 298 297 297 296 296 296 294 292 293 292 291 290 291 291 290 291 290 290 290 289 288 288 288 289 290 292 293 293 292 289 289 288 287 287 288 287 286 287 290 290 287 284 283 283 282 282 282 281 281 281 279 276 276 276 276 275 273 271 270 270 269 269 268 268 267 266 266 265 265
298 298 299 299 300 299 298 298 298 298 298 298 298 303 305 301 297 296 297 297 296 296 297 300 297 292 290 291 291 291 291 291 291 291 291 291 290 289 289 289 287 286 289 292 292 291 290 289 289 289 286 286 287 288 287 288 291 290 286 283 282 283 282 281 281 281 280 279 277 275 275 275 275 274 272 270 270 269 269 268 268 267 266 266 265 265 265
298 298 297 298 299 298 299 299 298 298 299 297 299 306 309 303 297 297 297 297 296 296 297 297 295 292 291 291 291 291 291 291 292 292 291 291 291 289 290 291 289 289 292 294 290 289 290 289 289 289 288 287 288 288 287 288 291 290 286 283 282 282 281 281 281 280 278 276 275 275 275 275 274 274 272 270 269 269 268 268 267 266 265 265 264 264 264
298 297 297 297 297 297 297 297 297 298 298 297 297 300 300 298 297 297 297 298 297 297 301 300 296 295 297 295 291 290 291 291 291 290 291 291 291 290 290 290 289 290 291 292 291 290 289 288 288 288 287 285 287 288 287 288 290 289 285 283 282 281 280 281 280 278 276 274 275 276 276 275 274 273 272 270 269 268 267 267 266 265 265 264 264 264 263
298 297 297 297 297 296 297 297 296 297 297 296 296 296 296 297 298 297 297 297 294 294 299 302 300 296 295 293 290 290 292 292 291 291 292 290 290 291 292 290 289 289 290 291 291 289 287 288 290 288 285 283 285 287 288 288 288 286 284 282 281 280 280 280 279 276 275 274 274 275 275 274 272 271 270 269 268 268 267 266 266 265 264 264 263 263 263
298 298 297 297 297 297 297 296 296 296 296 295 295 294 295 296 297 296 296 296 294 294 295 298 300 299 296 296 295 292 291 292 294 294 293 291 289 291 293 292 291 291 290 289 289 288 288 289 289 289 287 284 283 286 289 290 286 283 281 281 280 280 280 280 279 277 275 274 274 273 273 272 272 270 269 269 268 268 267 266 265 264 264 263 263 263 263
297 298 298 298 298 298 298 297 297 297 296 295 295 294 294 294 295 296 296 295 297 301 298 294 296 300 298 299 301 295 290 291 293 291 291 291 289 289 291 294 294 292 289 288 288 289 289 287 287 288 287 285 286 291 294 292 287 283 281 281 280 279 280 280 279 277 274 273 273 272 271 271 271 270 269 268 267 267 267 266 265 264 263 263 263 263 262
298 298 298 298 298 298 298 298 298 298 297 296 295 295 296 295 294 295 295 294 296 300 300 295 295 296 294 296 297 293 289 291 292 290 291 292 289 288 292 297 296 290 288 289 290 289 286 285 287 288 287 288 293 295 291 288 287 284 281 281 280 279 279 279 277 276 274 272 272 272 271 271 270 269 268 268 267 267 266 265 265 264 263 263 263 262 262
298 297 298 298 298 298 298 297 297 298 297 296 296 296 296 297 297 295 294 294 292 292 294 296 296 292 289 291 293 291 290 291 291 291 293 293 291 290 293 297 295 290 289 293 292 288 286 285 287 291 292 292 291 288 284 284 285 283 280 280 279 279 278 277 274 274 273 273 273 273 272 271 270 269 268 267 267 266 265 265 264 264 263 262 262 262 261
298 298 298 298 299 301 301 298 296 298 297 297 298 298 295 296 299 298 296 295 294 290 289 292 294 290 289 291 291 290 291 291 290 291 292 291 291 291 292 294 293 290 291 292 288 284 286 287 285 288 292 291 286 283 282 281 281 280 279 279 278 277 276 274 273 273 274 274 273 272 271 271 270 269 267 267 266 265 265 265 264 263 262 262 261 261 260
299 299 298 299 300 301 300 297 296 297 297 296 298 298 296 296 299 299 297 297 296 292 290 292 292 290 291 294 293 291 289 290 292 295 293 291 291 292 291 292 290 288 291 293 287 283 288 291 285 285 292 294 288 284 282 280 279 278 278 277 277 276 275 273 272 273 273 273 272 271 270 269 268 267 266 266 265 265 264 264 263 262 261 261 260 260 260
299 299 298 299 299 298 297 297 296 297 298 297 297 298 298 297 296 295 297 300 298 292 290 291 289 286 287 290 292 291 289 288 290 292 292 291 290 289 290 291 289 288 293 296 289 285 289 291 288 288 294 297 291 284 280 279 279 278 276 276 276 275 274 273 272 272 271 271 270 268 268 267 266 266 266 265 264 264 263 262 262 261 261 260 260 259 259
299 299 298 299 299 297 297 297 297 296 297 298 298 298 298 297 294 293 296 300 297 291 288 289 290 290 289 288 289 291 290 287 285 287 289 291 290 289 290 291 288 288 292 294 289 287 289 291 292 294 295 293 288 282 279 279 279 277 276 275 275 274 273 272 272 271 271 270 268 267 266 266 266 265 265 264 263 263 262 261 261 261 260 260 260 259 259
300 300 299 299 299 298 298 298 297 295 297 299 299 297 295 295 297 296 296 295 293 290 289 288 289 290 289 286 286 288 287 285 285 287 289 290 290 290 291 291 289 289 290 289 286 287 289 291 295 299 295 288 283 280 279 280 279 277 276 275 274 273 272 272 271 271 270 269 268 267 266 266 265 265 264 264 263 262 262 261 261 260 260 260 259 259 259
299 299 299 299 298 298 300 300 296 296 299 301 299 296 296 296 296 295 294 292 290 289 289 288 287 288 287 285 285 286 286 285 287 289 288 288 289 290 291 291 289 287 286 285 287 290 292 295 299 299 292 285 281 280 280 279 277 275 275 274 273 273 272 271 271 270 269 268 268 267 266 266 265 264 264 263 262 262 261 261 260 260 260 259 259 259 259
298 298 299 300 299 298 300 300 296 296 299 299 296 296 297 297 296 296 296 294 291 289 288 287 287 288 289 287 286 287 288 286 287 287 286 286 288 290 291 291 290 286 284 287 291 291 291 293 296 292 287 283 281 280 279 278 276 274 274 273 272 272 271 271 270 269 268 267 267 267 266 266 265 264 263 263 262 262 261 261 260 260 260 259 259 259 258
300 301 303 304 302 299 299 300 299 297 297 298 299 301 300 298 299 301 298 292 289 288 287 286 285 288 289 286 284 286 288 287 286 287 286 286 288 290 288 288 288 287 286 289 291 289 289 293 294 291 288 286 282 280 279 277 275 275 274 272 271 271 271 270 270 269 268 267 267 266 266 266 265 264 263 263 262 261 261 261 260 260 260 259 259 259 258
300 302 304 306 303 298 298 301 301 298 296 298 303 307 304 300 300 298 290 286 288 289 287 285 285 287 289 287 284 285 288 288 286 286 285 286 288 289 285 284 286 288 288 289 291 293 294 296 294 291 290 287 283 279 278 276 274 275 274 273 271 271 271 270 270 269 268 267 267 266 266 266 265 264 263 263 262 261 261 260 260 260 260 259 259 259 258
300 299 302 306 304 298 298 299 298 295 295 297 300 301 295 292 292 289 283 281 285 286 284 282 283 283 284 285 285 286 288 288 286 285 284 285 287 288 285 284 288 290 288 288 293 300 301 296 291 289 288 285 282 280 278 275 273 273 273 273 272 271 271 270 270 269 268 267 267 266 266 265 265 264 263 263 262 261 261 260 260 259 259 259 258 258 258
301 299 301 304 303 301 300 297 293 291 291 291 291 289 285 285 290 290 283 278 280 283 284 285 285 285 285 284 285 286 287 287 287 286 285 285 286 288 288 288 290 290 288 290 296 301 299 293 290 288 285 282 281 281 279 276 273 272 271 272 271 271 271 270 269 268 268 267 266 266 266 265 265 264 263 263 263 262 261 260 260 259 259 259 258 258 258
298 298 300 300 301 301 296 291 292 297 296 289 287 286 286 288 293 291 282 277 280 283 282 282 284 287 287 285 286 287 287 287 287 286 285 285 288 289 288 289 291 292 292 293 296 297 294 290 287 286 284 282 281 280 277 275 274 273 272 272 272 271 270 270 269 268 268 267 266 266 266 265 264 264 263 262 262 262 261 260 260 259 259 259 258 258 258
295 298 299 298 298 299 294 290 296 303 301 294 292 291 289 293 295 289 280 278 280 281 280 282 285 286 285 285 287 289 288 286 286 287 288 290 291 289 286 289 294 297 297 295 294 293 291 287 284 285 284 282 279 276 274 274 274 274 273 273 272 271 270 270 268 268 268 267 266 266 265 264 264 263 263 262 262 262 261 261 260 259 259 259 259 258 258
296 297 296 294 295 297 297 297 301 303 301 301 303 297 292 295 297 288 280 279 282 284 286 288 288 287 287 288 289 288 286 284 285 287 287 288 288 287 289 293 298 300 299 296 292 289 287 284 282 284 285 281 276 274 274 275 275 274 273 272 271 270 269 269 268 267 267 266 266 265 265 264 263 263 262 262 261 261 261 261 261 259 259 259 259 258 258
301 297 294 290 289 293 295 296 298 299 299 300 298 291 288 291 290 282 278 281 286 288 289 288 287 288 290 290 288 286 285 285 287 289 289 287 287 289 294 299 299 297 295 292 289 288 285 280 277 278 281 279 276 275 275 275 274 273 272 272 271 270 269 268 268 267 267 266 265 265 265 264 263 262 261 261 261 261 261 261 261 260 260 260 259 259 259
Wind_Speed
15 15 15 16 16 17 17 19 19 21 21 16 11 7 3 3 1 3 15 17 3 7 5 3 3 3 1 0 0 1 1 1 1 2 2 1 1 2 1 0 0 0 1 0 0 1 1 2 1 1 1 1 1 1 1 0 1 1 1 2 1 1 2 1 4 4 4 5 4 2 2 4 4 3 3 2 2 1 4 4 2 1 2 1 1 2 3
14 14 15 16 16 16 17 17 18 18 20 17 11 4 3 2 2 2 14 15 3 5 3 1 2 3 2 2 2 2 1 1 1 1 2 2 1 1 1 0 0 0 1 1 1 1 0 1 0 1 1 0 0 0 1 2 0 1 1 1 2 2 0 1 3 4 5 6 5 5 4 4 3 2 4 3 3 4 1 1 2 1 1 2 2 3 3
14 14 16 16 15 16 16 16 16 16 16 15 9 3 3 2 0 3 11 16 10 4 3 5 3 1 1 3 3 3 2 0 1 1 0 1 1 1 1 1 1 1 0 1 2 1 0 1 2 2 0 2 1 1 2 2 0 1 3 2 1 1 1 2 2 0 2 3 3 3 3 2 2 2 6 6 5 5 1 1 3 0 2 3 2 3 2
14 15 16 15 15 15 14 14 15 14 14 12 7 4 2 2 2 2 6 10 9 3 1 4 4 2 2 2 2 2 2 1 1 1 1 1 1 1 1 1 0 2 3 3 3 2 1 1 2 3 1 3 2 1 2 1 1 3 4 1 2 2 1 2 4 5 4 4 4 4 2 1 2 3 7 7 5 4 3 3 2 1 0 3 1 2 2
15 15 16 15 14 14 13 13 13 12 13 10 5 4 4 2 2 2 3 4 4 3 3 4 3 2 3 2 1 2 2 3 2 1 0 0 0 0 1 1 2 2 3 3 2 3 3 2 1 1 1 3 4 2 1 1 2 4 2 1 3 3 3 2 2 2 3 3 2 2 3 4 3 3 6 7 7 6 7 4 0 2 3 3 3 1 4
15 15 15 14 14 13 12 12 12 11 11 10 5 3 4 3 2 1 0 0 1 3 4 3 4 4 3 2 1 3 3 4 2 1 1 1 1 1 1 3 3 0 1 1 1 3 4 3 1 1 1 3 4 4 2 1 4 4 2 2 2 5 1 2 1 3 5 3 3 5 8 6 4 5 5 7 8 8 7 3 0 3 2 3 2 3 4
15 14 14 14 13 12 11 11 11 10 9 9 7 4 2 2 2 1 2 2 2 0 2 2 5 5 3 2 2 2 3 3 1 2 2 3 3 2 1 4 5 2 1 2 0 3 3 3 3 1 2 3 3 4 2 2 4 4 4 3 1 3 1 2 2 4 6 5 5 5 7 6 5 7 6 5 5 6 5 1 2 2 2 3 1 5 5
14 14 13 13 12 12 11 11 11 10 8 6 6 5 2 2 2 1 3 3 1 1 2 3 4 3 3 2 2 1 1 2 2 1 1 2 3 3 2 6 6 3 0 3 1 2 1 1 3 1 2 3 1 1 1 2 5 6 4 3 2 2 2 1 3 3 3 4 5 6 6 7 6 6 6 5 4 5 4 3 3 3 2 2 3 5 4
15 14 13 13 13 13 13 12 11 10 8 4 5 4 3 3 2 2 4 3 3 2 2 3 4 3 3 1 1 1 0 1 2 1 0 0 1 2 3 5 4 3 3 4 3 3 2 1 2 3 2 0 0 1 0 1 4 6 3 3 4 4 3 2 5 3 2 1 3 3 4 5 5 6 7 6 4 4 3 2 1 1 3 5 5 5 3
16 16 15 15 15 14 14 13 12 11 9 5 4 3 2 2 1 2 5 3 3 2 2 3 4 1 2 1 1 1 2 2 0 0 1 1 0 1 0 1 2 3 4 4 3 2 1 1 1 2 3 2 2 2 2 2 2 3 2 2 2 2 2 3 4 2 2 2 2 2 1 3 3 4 5 5 1 3 5 4 2 1 1 2 3 3 3
17 17 17 16 16 16 15 14 14 13 11 9 6 4 2 2 1 2 5 4 3 3 2 3 3 1 1 2 2 1 2 4 3 1 1 2 2 1 2 2 2 2 2 1 1 0 2 2 2 3 4 5 5 4 4 6 5 2 2 1 1 3 4 2 2 2 3 5 2 2 3 2 4 1 3 4 1 4 8 6 2 1 2 1 2 4 6
18 18 18 17 17 16 15 15 14 13 14 12 8 7 4 3 2 3 5 4 2 4 4 3 2 1 2 3 2 1 2 4 3 1 1 2 2 3 3 3 3 1 1 1 2 3 3 2 3 4 5 5 5 6 8 10 8 5 3 2 1 4 4 1 1 2 2 4 5 4 2 3 5 3 5 5 0 3 8 5 2 3 4 4 5 6 8
19 19 18 18 18 17 16 16 15 14 14 12 9 10 8 5 4 4 4 5 2 3 3 2 2 3 4 5 3 3 3 3 3 1 1 1 2 3 3 2 2 0 2 2 4 4 3 3 3 3 4 5 4 7 9 9 9 8 8 5 2 3 3 1 1 2 1 3 4 1 3 2 1 1 6 6 3 5 8 4 2 2 3 4 5 7 7
19 19 19 18 17 17 16 15 15 14 14 12 11 12 10 7 5 3 3 5 2 2 0 1 4 6 5 5 5 4 4 3 3 2 1 1 1 1 1 0 1 1 3 4 4 3 2 2 3 3 3 5 4 4 5 5 6 8 9 7 4 3 3 2 2 1 1 1 2 3 2 3 2 2 4 4 3 4 6 3 0 2 3 4 6 8 8
18 18 18 18 17 16 15 15 15 14 14 13 12 12 12 10 7 4 3 5 4 1 2 1 3 5 5 4 4 4 4 5 4 2 1 1 0 0 1 1 1 2 3 3 3 2 1 1 2 3 3 3 2 2 2 3 3 4 6 7 6 5 3 3 2 2 2 2 2 3 4 3 3 1 3 5 4 4 3 2 1 2 5 5 6 8 10
17 17 17 17 17 16 16 15 15 14 13 13 12 11 12 12 9 6 6 6 5 2 3 2 3 3 4 4 3 4 3 4 3 3 4 4 2 1 1 1 1 2 3 3 2 3 3 1 2 2 1 1 1 1 2 2 3 3 4 7 9 8 5 4 4 3 2 3 1 1 2 3 3 2 5 7 5 3 1 1 2 1 4 5 6 8 10
17 17 18 18 17 17 16 15 15 14 12 13 13 14 14 12 8 6 7 6 5 3 1 3 3 2 1 2 3 2 1 2 2 2 3 3 2 3 2 1 0 2 3 2 3 3 4 3 2 3 1 2 0 1 2 2 3 6 7 7 8 7 5 4 5 3 1 1 0 2 3 2 1 2 6 8 5 1 3 3 4 2 5 6 6 8 9
17 17 17 17 17 17 16 15 16 15 13 12 12 14 16 14 9 7 7 6 5 3 2 4 2 1 1 1 2 2 1 2 2 1 2 3 1 2 3 2 2 1 1 2 3 3 4 3 2 3 0 2 2 2 1 2 2 4 5 4 4 4 3 3 4 3 2 1 1 4 3 1 1 4 6 7 5 3 2 3 5 4 8 7 6 7 7
16 17 17 17 16 16 16 16 16 16 15 14 11 12 16 15 10 11 12 8 4 2 2 4 2 1 3 2 2 2 1 1 1 1 2 3 1 1 3 1 1 2 1 3 3 3 3 2 1 2 2 3 2 3 2 2 1 2 3 3 2 2 3 2 2 2 2 1 1 4 3 1 2 6 5 3 3 2 2 4 4 7 9 8 7 7 5
16 17 17 16 16 15 15 15 16 16 17 15 11 14 18 16 10 11 13 10 6 3 3 4 3 3 3 2 1 1 1 1 1 1 2 2 3 3 4 3 2 3 3 4 3 1 2 1 2 1 2 1 1 2 2 1 1 1 0 1 0 1 1 3 2 1 1 2 2 3 3 2 3 5 4 2 1 1 3 5 5 7 7 6 5 6 5
15 16 16 16 15 14 13 14 15 16 17 14 12 17 22 21 17 15 18 20 13 4 1 2 4 6 6 5 5 2 1 2 2 1 1 3 4 3 4 1 2 2 1 2 2 1 1 1 0 1 1 1 1 2 2 1 2 2 1 2 1 1 2 1 3 1 2 1 1 1 1 2 3 3 2 1 1 1 3 5 6 5 4 4 4 5 5
13 14 15 15 14 13 13 13 13 15 16 13 12 17 22 23 22 21 24 28 22 10 7 7 7 8 9 8 7 5 3 2 1 1 1 2 3 3 3 1 1 0 1 2 2 1 1 1 1 2 1 1 2 2 2 2 1 3 2 3 1 1 2 2 3 2 2 4 4 2 1 1 1 1 2 1 2 1 1 4 6 4 3 3 4 5 6
12 13 14 14 14 12 11 12 12 14 15 12 12 16 21 21 21 22 27 29 22 12 9 8 5 6 7 7 8 8 4 1 1 1 1 0 2 2 1 1 1 1 0 2 2 1 2 2 2 3 2 1 2 2 2 1 1 2 1 1 1 1 1 2 1 3 4 4 3 1 2 2 1 2 2 0 1 2 1 2 3 3 3 4 5 5 6
11 12 13 13 13 11 11 12 12 13 13 12 12 16 20 19 15 14 17 16 10 5 5 4 3 3 4 6 7 7 5 4 4 2 2 2 1 2 2 1 1 1 2 2 1 2 2 1 2 3 2 1 2 3 2 0 1 2 1 2 2 1 2 1 1 2 3 3 1 3 4 5 1 3 0 0 1 0 1 2 2 4 4 5 6 7 9
11 12 12 12 12 11 11 12 12 12 13 12 11 13 15 14 10 8 8 8 6 4 4 4 4 4 4 4 5 6 6 7 7 5 6 5 3 2 1 3 1 1 1 2 2 3 3 2 2 3 2 2 2 2 2 1 1 2 1 1 2 1 1 1 1 1 3 4 2 4 7 5 2 4 1 2 2 2 3 4 5 6 6 7 8 10 11
12 12 12 12 11 11 12 12 13 14 15 15 14 13 14 15 13 11 13 14 10 6 4 2 3 3 3 4 5 5 6 8 7 6 5 5 4 3 2 2 1 0 1 2 3 4 3 3 3 3 2 2 2 2 2 2 1 2 1 2 2 1 1 1 1 2 4 5 4 6 7 4 2 2 3 2 2 3 3 4 6 6 6 7 9 10 11
13 13 13 12 11 12 12 14 16 18 19 20 19 18 16 14 11 7 6 7 4 3 3 2 2 2 3 5 6 7 7 8 8 7 6 4 4 5 4 2 1 1 2 4 3 3 3 3 3 2 2 1 2 2 2 1 2 3 0 2 0 2 1 1 1 2 4 3 2 4 5 4 3 3 3 3 3 4 3 4 5 5 5 7 8 9 10
14 14 14 13 12 12 13 15 18 20 20 20 21 22 22 21 17 12 6 4 6 5 4 3 2 1 2 4 8 9 8 8 9 9 7 5 4 5 5 3 2 1 3 4 2 3 4 3 1 1 1 1 2 2 1 2 3 1 2 3 2 2 2 2 1 3 5 4 1 0 2 5 6 5 3 4 5 5 3 3 4 4 6 8 8 7 8
14 15 16 15 13 11 10 11 11 11 11 11 12 16 19 19 19 18 14 14 18 15 7 2 2 2 0 3 8 8 7 8 8 8 9 9 8 7 8 8 5 3 3 4 4 3 3 2 2 1 0 1 2 1 1 1 1 2 3 4 3 3 3 3 3 5 6 3 0 1 2 5 6 4 3 5 5 5 3 3 4 4 7 9 8 7 8
14 16 18 18 16 13 9 7 5 2 1 1 1 5 9 10 12 14 12 11 13 12 6 3 3 1 1 2 5 9 8 6 6 7 10 11 10 9 8 8 6 4 4 3 3 3 2 1 1 1 2 1 3 2 1 2 1 3 3 4 4 3 2 3 4 4 3 1 0 1 3 5 5 3 4 6 6 6 4 3 4 5 8 9 8 9 9
14 17 19 20 20 18 15 12 9 5 3 2 1 2 3 3 6 9 8 6 6 7 6 4 2 1 2 1 3 8 9 6 5 5 6 7 8 8 8 6 5 5 4 2 2 2 2 1 2 2 3 4 4 3 2 3 1 4 4 4 4 3 2 3 3 2 1 0 2 4 5 3 2 2 3 5 6 7 5 3 4 7 9 9 9 9 9
14 17 19 20 22 22 21 20 18 17 16 15 12 7 3 1 3 6 6 6 6 7 6 4 2 1 1 2 3 7 8 5 4 4 4 3 4 5 6 6 4 4 4 3 2 2 1 1 1 1 2 3 4 3 3 3 2 5 4 4 4 2 3 3 2 2 3 2 2 4 5 3 1 1 2 3 6 7 6 5 7 9 10 10 10 10 11
11 13 15 17 18 19 20 21 21 21 24 25 22 17 10 4 2 4 5 6 7 6 5 4 3 1 1 2 2 7 8 4 3 4 3 3 3 3 3 4 3 3 4 3 1 0 1 2 2 1 2 2 3 3 2 2 4 4 3 4 3 2 2 3 2 3 3 2 2 1 5 6 1 3 3 4 6 7 7 7 9 11 11 10 11 12 13
10 10 12 14 14 14 15 16 17 19 21 22 22 23 23 18 10 5 3 4 7 8 6 4 3 1 2 1 1 5 6 3 2 2 2 3 4 2 1 3 3 3 3 3 2 1 1 1 2 1 2 2 2 1 2 4 5 3 3 2 2 1 2 3 2 3 3 1 1 4 6 4 1 3 2 4 6 8 8 8 8 9 9 8 9 11 12
10 10 11 10 9 9 9 9 11 13 14 14 13 17 24 25 22 17 10 4 4 4 3 4 4 2 3 3 2 4 5 3 1 1 1 2 4 2 1 1 3 2 1 2 2 1 1 1 2 0 1 1 1 1 4 4 4 4 4 2 2 1 2 4 3 3 2 1 4 6 4 0 2 1 2 3 6 8 8 7 7 7 6 5 8 11 12
10 10 10 8 6 5 4 5 6 5 6 7 8 10 13 14 17 21 21 18 14 7 2 1 3 2 1 1 2 4 5 3 1 2 1 1 3 3 3 3 2 0 1 2 2 1 1 1 1 1 2 0 2 4 4 4 5 5 4 3 3 2 3 3 3 2 2 4 6 5 2 3 2 0 1 3 6 7 6 5 6 6 5 5 8 10 11
9 9 8 6 4 3 3 4 4 4 5 5 5 4 4 3 3 9 14 17 16 11 6 4 2 1 1 1 3 5 5 2 2 3 3 1 2 2 2 3 1 1 2 3 1 1 1 2 2 0 2 3 4 4 4 4 5 5 4 3 3 3 3 3 2 1 2 5 5 3 2 2 1 0 1 3 5 5 4 4 4 5 5 6 8 10 11
8 7 5 4 2 2 2 2 2 5 4 3 2 1 3 3 3 4 5 6 7 8 7 5 1 1 1 0 2 4 4 2 1 3 2 1 1 1 1 2 1 0 1 2 2 1 1 3 3 1 4 4 3 3 4 4 4 3 3 3 4 4 4 4 3 1 2 5 4 2 2 2 2 2 2 3 4 4 4 4 5 6 7 8 10 11 12
6 4 3 2 2 1 1 2 3 3 2 1 1 1 3 4 4 3 3 3 3 3 4 3 1 1 2 1 3 3 3 2 2 3 2 1 1 2 1 1 1 1 1 2 2 1 2 2 2 1 3 5 3 3 4 4 3 2 2 3 4 5 6 5 4 2 2 4 3 1 2 1 3 3 3 3 4 4 4 5 5 6 7 9 10 11 12
4 3 2 2 2 2 2 2 1 1 0 2 3 2 2 3 3 1 1 3 3 2 2 2 0 1 1 1 2 2 2 3 1 1 1 1 1 0 1 1 0 1 1 2 2 1 1 1 2 2 2 4 3 3 4 4 3 3 3 4 5 6 6 4 2 2 3 3 3 4 3 1 1 3 4 3 3 3 4 5 6 7 8 9 10 11 12
2 2 2 3 4 4 4 3 2 1 1 2 3 3 2 2 2 1 2 3 2 3 1 2 2 3 2 1 1 2 2 2 1 2 1 1 1 1 1 1 1 1 1 4 2 2 3 1 2 2 4 4 3 3 4 4 3 3 4 6 6 6 6 4 2 2 3 4 5 4 2 1 2 3 4 3 3 3 4 6 6 7 8 9 10 12 12
5 6 6 7 7 5 3 4 5 4 2 2 2 2 1 1 2 2 2 1 0 2 1 1 1 2 3 1 2 2 1 2 2 2 1 1 1 1 1 1 1 1 2 3 1 3 2 1 3 4 5 4 3 4 4 4 3 3 5 7 8 7 6 4 2 3 4 6 6 4 1 1 3 3 3 3 3 3 4 5 7 8 8 8 10 12 12
8 7 6 5 3 3 3 3 4 3 2 2 2 2 2 2 2 2 2 2 0 0 1 2 2 2 2 1 1 2 2 1 1 1 1 1 1 2 2 2 1 0 1 0 3 3 1 3 4 5 4 3 3 4 4 3 3 3 5 8 9 8 6 4 3 4 5 5 5 3 1 2 4 4 3 4 4 4 4 4 5 6 8 9 10 11 12
4 3 3 2 2 3 3 2 2 2 2 2 1 1 1 3 2 1 2 2 1 1 1 1 2 2 2 1 0 1 1 0 1 1 0 1 1 2 1 1 2 1 1 2 1 1 3 4 4 4 3 2 3 4 4 4 3 3 4 7 9 8 5 4 5 6 7 6 5 4 3 3 4 4 3 4 4 5 5 5 5 6 8 9 10 11 11
1 1 3 3 3 3 1 1 2 2 2 0 2 3 3 2 3 3 3 2 1 0 1 1 3 1 3 3 0 0 1 1 1 1 1 1 2 1 1 2 1 1 2 1 1 2 3 4 4 3 3 4 4 4 4 4 4 4 3 5 8 9 8 6 7 8 9 8 7 5 4 5 6 5 5 4 4 4 5 5 6 7 8 9 10 12 11
2 1 3 3 1 2 1 1 1 1 1 2 3 4 4 4 5 5 3 1 2 1 1 1 3 2 2 2 1 0 0 1 1 1 1 2 1 2 2 1 1 2 2 1 2 3 5 5 4 3 4 5 4 4 4 4 5 5 4 4 7 10 10 8 7 9 9 9 8 7 6 6 7 7 7 6 5 4 4 5 6 7 7 9 10 11 11
2 2 3 3 1 2 1 1 1 1 2 3 4 4 3 2 3 2 1 2 3 3 2 1 2 1 2 1 0 1 1 1 0 1 0 1 1 2 1 1 0 1 1 2 4 5 5 4 3 4 4 4 4 4 4 4 5 7 7 6 7 9 9 8 8 8 9 9 9 8 7 7 8 7 7 7 6 4 4 5 6 6 6 8 9 10 11
2 1 2 2 1 1 1 1 1 1 1 1 2 2 1 0 1 2 2 3 3 3 3 2 1 0 1 1 0 1 1 1 0 1 0 1 0 1 2 2 2 2 2 4 5 5 4 4 4 4 4 4 4 4 4 4 6 8 8 8 8 8 8 9 9 9 10 10 10 9 8 8 8 8 8 8 8 6 5 6 6 6 6 8 9 9 10
5 3 2 2 2 2 2 1 1 2 3 2 2 2 1 2 3 4 3 4 3 3 3 2 2 1 1 1 1 0 1 1 0 0 1 1 0 1 0 1 3 3 3 4 5 4 4 4 3 4 4 5 4 3 4 6 8 8 9 10 9 9 9 9 9 9 10 10 11 10 8 8 9 9 8 9 9 8 7 6 6 6 6 8 9 10 10
6 4 2 2 1 1 1 1 1 3 5 4 3 2 2 2 4 4 5 5 3 2 2 2 1 1 0 1 2 1 2 2 1 1 0 1 2 2 1 2 4 4 4 4 4 4 4 3 3 5 5 5 4 4 6 8 9 9 9 9 8 8 8 9 9 9 10 10 10 9 8 9 9 9 9 9 9 9 9 8 7 6 7 8 9 10 10
3 3 1 1 1 2 3 4 3 3 4 4 3 4 4 3 3 5 7 7 4 4 2 0 0 2 2 1 1 1 1 1 1 1 2 3 2 3 2 5 6 5 4 4 4 4 4 4 4 5 5 4 5 7 9 9 9 8 8 8 8 8 8 8 8 9 10 10 10 9 9 9 9 9 9 8 9 10 10 9 7 6 8 9 9 10 11
2 1 0 1 1 3 4 3 1 3 3 3 3 4 3 2 3 6 9 8 4 2 1 1 2 3 1 1 1 1 0 1 0 1 3 3 3 4 5 6 5 4 4 4 5 4 4 4 6 7 7 6 7 9 9 9 8 8 8 8 9 9 9 9 9 9 9 10 11 9 9 8 8 9 9 9 9 11 12 11 8 8 9 10 10 10 11
Wind_Direction
348 349 351 351 353 353 353 357 356 355 360 4 6 16 65 82 153 300 349 347 356 94 45 335 29 41 277 280 337 328 51 68 323 347 12 26 17 20 33 165 49 142 212 243 200 248 245 216 219 276 256 258 223 256 6 305 205 112 338 312 335 28 67 15 295 295 306 314 344 24 47 77 73 31 31 51 357 58 143 174 200 258 316 26 56 293 254
348 350 351 352 354 353 354 359 358 356 2 7 10 34 127 122 216 288 0 6 79 111 61 77 37 336 286 30 18 337 39 103 6 1 356 1 68 66 5 235 34 307 173 134 222 251 296 255 305 71 182 243 38 291 347 329 200 93 352 295 341 329 337 62 356 342 344 345 352 349 350 34 58 10 359 359 9 31 78 166 67 50 296 81 138 256 265
350 351 353 354 355 355 355 356 358 0 4 8 20 72 138 71 208 268 2 26 62 111 152 143 130 278 10 37 7 351 14 71 13 69 88 351 154 141 332 252 164 293 152 46 306 296 13 278 334 38 325 291 350 9 321 320 197 266 281 272 309 271 207 90 76 325 300 304 305 296 296 351 40 22 357 359 23 26 330 265 54 74 288 41 143 226 270
354 355 357 358 358 358 356 356 360 4 5 9 34 72 101 80 48 308 339 20 51 80 139 103 110 135 100 50 7 16 19 310 317 119 108 2 160 136 323 267 126 23 31 19 325 315 341 293 8 30 314 286 303 314 318 314 217 273 298 339 88 106 46 61 137 172 205 230 258 268 252 39 42 5 356 1 2 11 69 92 60 176 308 358 216 205 314
360 0 1 1 1 0 358 359 3 6 7 13 39 55 50 84 79 14 328 350 27 32 13 41 68 114 118 96 4 356 339 323 339 102 137 354 83 80 23 46 48 23 20 21 305 292 331 355 24 28 291 281 292 306 342 2 303 300 316 52 84 80 22 1 117 167 256 247 274 354 63 72 70 43 11 4 357 18 68 83 353 131 92 315 260 338 346
5 5 6 6 6 6 5 5 6 10 11 12 29 46 30 65 137 174 138 26 40 18 2 42 63 46 73 110 15 4 3 359 1 300 325 7 15 14 21 24 33 354 289 39 317 313 343 351 341 26 341 321 332 342 344 342 337 344 7 7 82 102 53 311 71 26 357 16 47 72 85 80 65 63 37 15 17 37 67 87 13 103 131 247 278 341 323
11 12 13 13 14 13 13 12 9 14 14 15 41 68 36 71 112 296 5 87 149 118 347 70 77 42 41 70 34 42 39 9 313 266 352 1 349 32 13 330 341 329 253 144 86 324 346 332 308 357 7 339 358 3 336 323 353 17 24 353 93 119 318 276 110 45 20 24 20 61 97 98 61 48 33 22 35 52 66 46 343 13 218 213 8 325 289
18 20 20 20 22 22 23 22 15 15 17 21 50 65 54 102 144 216 48 58 81 35 12 69 80 32 27 59 34 82 109 344 299 258 62 3 336 22 2 308 321 342 100 121 48 312 189 266 276 194 36 348 7 24 295 290 341 10 24 335 337 37 338 299 101 59 13 20 25 41 85 106 87 53 26 20 39 49 49 23 356 356 290 294 4 317 277
27 28 29 29 32 32 31 30 23 17 20 39 67 64 70 103 138 144 103 58 356 7 21 66 87 33 7 32 351 352 170 271 275 274 103 120 312 353 334 308 321 8 57 70 7 312 162 182 256 184 157 341 88 42 260 256 330 352 11 341 354 26 1 2 62 64 303 353 83 76 81 92 80 39 12 5 26 38 11 331 314 291 284 316 337 319 299
35 36 38 37 39 39 37 35 32 29 32 51 76 73 81 98 61 69 101 80 355 9 15 38 76 62 340 339 299 308 301 294 313 34 342 34 16 266 272 319 340 12 33 36 346 301 174 163 231 170 155 107 90 60 49 70 19 341 6 16 15 65 67 21 49 74 286 313 121 159 57 20 337 342 349 325 334 41 353 314 268 238 261 305 304 301 332
41 42 43 43 43 41 40 39 37 39 46 53 77 103 101 93 66 41 78 76 358 354 31 33 44 42 353 357 335 329 349 348 11 62 350 351 17 48 101 86 45 26 20 2 335 88 138 138 113 100 89 76 74 75 62 55 48 13 1 26 14 65 83 74 55 81 278 298 1 68 42 336 260 218 10 307 236 43 352 314 260 22 40 48 317 325 342
43 44 44 44 44 41 41 40 37 42 49 50 65 90 76 61 78 65 87 102 338 357 51 50 23 21 352 351 331 291 338 346 344 26 350 320 4 36 56 71 61 39 266 310 45 79 95 82 72 65 55 53 60 65 57 47 37 25 36 78 65 43 55 62 64 80 267 307 26 36 322 247 211 148 26 343 280 38 339 298 181 60 31 30 351 332 333
42 42 41 40 41 40 39 40 37 39 46 43 52 71 63 46 63 76 100 108 35 2 44 21 356 30 10 358 349 293 287 305 305 338 62 358 355 9 19 72 87 247 195 108 65 68 77 44 37 34 8 7 24 42 47 42 31 25 32 44 63 72 74 86 77 67 329 7 34 323 266 259 218 38 15 1 5 6 346 331 123 49 28 28 346 323 324
39 39 38 36 37 38 36 39 39 39 45 44 46 59 54 40 57 89 113 102 78 323 340 350 355 7 352 337 340 324 317 344 352 16 84 74 3 334 316 218 195 209 150 110 55 49 97 61 36 20 349 358 5 7 25 38 35 35 31 19 31 89 97 73 53 51 82 73 276 279 342 356 331 357 10 355 327 333 337 320 243 40 35 20 343 325 324
38 37 38 35 35 35 34 37 39 39 45 45 44 55 55 46 54 77 108 115 122 43 25 5 323 336 325 311 344 8 359 353 359 355 335 347 88 238 287 223 165 126 108 98 68 68 109 87 50 34 6 2 351 315 340 9 15 48 48 28 31 53 69 81 66 26 74 76 325 344 8 324 265 219 331 326 303 287 289 261 245 35 29 6 343 331 327
38 37 37 36 36 36 34 35 37 41 48 47 45 50 50 46 52 68 80 97 112 82 16 322 280 297 298 291 339 42 26 331 337 353 342 350 3 312 320 103 139 129 87 66 78 89 67 61 122 101 28 305 252 292 340 5 326 325 26 35 34 35 41 75 73 32 49 73 11 294 250 245 225 248 311 321 307 281 314 330 264 353 11 354 346 337 331
38 36 35 36 36 37 38 39 40 44 47 48 47 46 47 46 49 64 76 76 85 97 335 309 285 279 303 313 330 19 31 318 357 34 327 321 334 323 331 32 81 163 126 58 35 64 65 52 67 67 344 276 81 22 343 38 357 321 339 11 23 20 9 31 51 36 25 84 272 261 237 209 190 307 313 311 301 341 47 344 277 302 355 353 351 338 332
36 34 34 35 35 37 40 42 43 44 44 44 47 46 46 44 41 61 87 89 91 105 350 333 310 274 354 15 299 319 347 337 359 11 297 311 11 334 312 337 5 334 143 72 39 56 68 46 45 81 4 300 48 73 355 38 23 311 319 352 11 10 356 26 61 43 355 52 253 283 276 195 314 318 307 305 319 46 64 272 269 328 347 349 352 337 335
35 33 33 34 36 38 41 44 44 44 43 40 43 48 46 44 54 81 90 81 70 88 357 338 359 358 331 286 251 282 343 6 340 351 353 351 359 327 308 313 35 5 11 64 67 73 74 27 341 112 92 326 3 100 83 44 42 305 336 6 11 4 343 353 50 30 348 85 199 293 292 213 291 310 310 327 359 3 269 275 316 339 335 340 347 336 340
34 34 32 34 38 39 43 47 45 45 45 42 48 59 54 47 54 82 99 106 105 93 39 4 31 50 14 23 67 326 325 13 9 72 88 297 298 21 27 345 338 5 16 44 54 61 83 41 309 81 97 321 350 101 92 39 20 337 26 101 130 108 343 322 306 261 350 16 8 319 297 257 295 323 334 17 49 282 295 319 331 326 327 341 342 329 336
33 34 33 34 39 41 46 50 46 46 49 45 52 66 65 63 70 86 105 111 109 109 70 48 70 82 70 61 68 50 1 32 16 23 120 274 296 62 86 261 293 8 36 72 70 29 98 136 272 43 68 318 32 76 116 81 355 321 166 131 124 131 131 271 270 204 92 23 296 242 242 278 323 347 7 9 320 325 335 319 307 315 342 349 330 325 336
31 33 33 34 40 44 49 53 48 49 54 52 58 74 79 81 85 92 96 92 86 91 121 117 98 83 72 58 51 41 35 57 32 249 187 293 328 62 111 156 70 104 191 110 83 37 59 95 104 84 64 21 45 78 121 119 325 302 344 72 108 201 174 189 238 241 186 218 240 226 111 53 11 61 92 10 315 316 308 291 296 324 357 344 332 333 337
30 32 33 35 41 46 52 56 51 50 57 58 60 80 95 100 95 93 93 90 88 96 111 114 105 74 50 32 27 21 17 59 169 226 187 5 357 29 68 93 78 271 243 86 99 154 134 124 130 114 104 86 86 96 102 100 221 245 340 52 178 233 50 119 197 283 282 260 268 1 20 357 74 112 114 159 255 268 289 292 309 347 352 343 345 340 332
31 34 35 37 43 50 56 59 56 52 56 59 63 82 100 108 103 96 94 93 98 104 87 74 63 35 2 358 17 23 34 77 94 64 30 30 46 45 1 331 19 25 17 34 89 115 104 125 124 96 95 139 114 113 125 264 229 167 83 339 302 299 354 61 117 320 315 301 358 32 344 323 83 120 64 273 159 88 24 41 13 357 352 352 353 344 332
33 35 38 39 45 57 64 64 61 56 56 62 73 86 94 96 95 98 97 93 102 110 86 40 9 2 349 358 26 41 49 61 68 56 34 26 40 62 338 315 343 59 1 348 37 76 71 81 99 92 114 157 142 135 162 195 195 144 131 288 276 284 316 312 303 285 270 269 302 349 332 317 135 122 18 11 69 36 46 55 19 357 356 356 351 342 333
38 37 38 41 51 67 74 70 66 66 67 71 78 84 89 89 87 90 96 97 95 90 91 75 347 2 39 38 31 35 39 40 40 35 22 9 8 17 4 344 348 295 357 30 67 97 101 93 90 94 116 126 117 145 170 183 130 100 151 228 221 36 4 281 287 295 279 281 319 348 335 311 149 96 29 49 53 9 21 31 8 358 358 350 342 338 334
43 39 39 47 63 78 83 81 80 81 81 81 80 79 79 80 78 81 105 115 100 57 84 135 269 316 66 59 32 26 30 28 23 18 7 352 350 358 5 26 56 32 43 49 57 79 82 73 67 93 154 151 86 107 146 145 99 95 229 248 174 53 8 237 15 328 291 286 344 3 331 292 282 350 27 79 58 15 14 13 360 359 360 345 333 331 336
47 44 46 55 72 89 96 96 95 93 88 81 77 74 70 66 62 59 62 107 119 109 122 159 182 157 101 45 16 14 20 20 22 27 29 34 35 24 25 53 101 79 57 65 69 59 63 73 87 128 173 152 78 64 26 32 58 42 265 237 167 152 185 174 159 266 274 285 314 49 277 278 299 337 44 88 55 28 15 3 4 2 353 344 334 332 340
55 54 57 60 72 91 106 110 110 104 90 78 73 71 69 64 61 63 72 93 103 105 107 116 98 95 71 353 358 6 17 20 24 39 51 55 56 52 50 58 75 93 88 90 93 83 79 122 161 171 289 130 122 85 8 60 60 281 238 195 174 181 185 182 209 250 277 303 25 169 239 275 301 336 72 89 57 40 16 3 15 4 345 346 346 342 342
68 67 67 66 70 79 93 109 123 127 73 99 85 64 62 54 49 58 71 90 101 104 105 103 92 53 293 320 359 7 13 19 28 41 50 51 49 47 50 56 61 68 74 73 81 98 104 38 3 306 320 39 119 142 139 137 206 266 243 195 188 198 209 218 227 244 271 299 174 258 265 274 299 351 98 96 59 38 20 9 15 359 348 351 352 343 339
82 78 75 72 72 74 74 76 79 71 61 78 75 56 69 39 18 36 55 72 90 100 99 96 93 348 333 314 355 6 9 11 22 30 37 43 42 42 48 52 43 41 58 74 66 95 117 54 13 333 336 28 79 127 141 131 237 284 263 200 188 200 232 250 237 214 209 351 327 298 276 267 315 3 96 84 44 26 17 6 3 358 352 349 345 340 338
96 88 84 81 78 78 77 75 75 75 73 74 75 79 105 162 358 29 60 80 90 99 97 86 84 31 349 288 325 0 4 4 18 25 23 25 29 34 46 54 51 51 73 98 82 51 101 132 89 358 349 35 73 95 99 117 214 254 232 186 181 211 242 253 234 172 155 99 16 322 301 309 1 89 104 58 30 17 8 359 354 352 350 345 342 343 342
114 102 96 93 88 85 83 81 78 77 76 75 73 70 66 58 37 58 81 80 72 76 86 94 101 75 319 258 321 358 1 357 9 22 23 7 359 4 21 32 43 48 49 67 109 80 102 128 103 25 347 33 85 93 94 203 224 228 196 171 184 232 254 252 219 171 162 126 86 299 294 305 347 110 92 38 16 6 1 356 349 346 346 345 342 341 342
133 122 113 107 97 91 89 85 82 82 80 75 70 64 60 59 56 62 96 101 75 63 57 73 105 80 343 345 339 358 9 19 359 4 9 351 357 18 7 348 12 39 29 33 92 74 354 48 86 51 324 13 67 92 252 253 239 212 174 179 213 261 285 279 241 190 181 182 271 274 283 293 89 104 66 9 0 356 351 348 348 346 344 340 335 334 337
141 141 136 127 108 96 96 92 85 83 79 76 77 73 68 64 59 57 64 78 72 59 30 40 82 97 14 8 317 327 6 38 15 317 290 320 352 37 112 18 18 35 4 16 75 61 356 66 117 108 328 17 46 231 239 246 235 206 190 211 241 275 296 288 262 219 198 271 295 292 290 243 117 87 8 349 349 345 338 336 344 345 336 324 324 329 333
142 147 149 147 129 109 102 86 75 76 83 94 103 91 76 69 62 61 63 64 65 79 135 51 62 102 89 40 282 314 357 24 314 321 322 298 341 19 73 71 55 60 16 40 64 59 2 120 142 321 329 313 221 229 218 207 208 202 195 217 235 226 241 253 239 219 257 289 289 285 258 140 137 64 356 338 332 330 325 326 335 337 326 315 318 323 326
139 142 149 154 139 100 62 46 59 89 108 122 130 101 67 66 63 54 54 54 52 57 79 93 86 183 178 207 272 324 351 345 308 344 350 282 289 335 49 71 73 266 5 21 20 217 351 41 81 137 252 228 221 235 228 194 191 191 187 216 239 226 212 210 185 175 297 297 288 271 223 164 164 13 349 324 315 314 312 314 323 325 320 314 314 317 319
134 133 144 152 123 64 23 25 91 117 116 119 145 100 23 23 47 40 27 31 35 38 54 77 100 282 35 51 291 334 357 342 343 7 355 229 254 329 40 85 115 186 351 323 266 211 40 27 54 145 256 266 265 249 230 195 175 177 182 212 232 215 194 185 163 128 316 308 302 279 243 255 280 303 313 296 286 286 299 309 314 318 317 314 312 313 316
138 137 131 112 91 95 150 133 118 127 132 26 62 76 10 14 39 34 347 358 18 9 25 58 139 192 88 44 316 338 25 42 15 3 349 277 289 323 355 85 117 65 31 307 281 49 23 336 1 7 286 288 294 251 209 172 154 174 196 207 216 206 192 185 174 179 263 279 275 191 159 209 267 276 277 276 278 288 303 311 314 318 318 317 316 317 319
140 129 94 82 86 103 131 143 146 164 118 16 33 56 34 23 45 76 358 24 30 334 345 58 157 236 96 80 289 306 19 42 31 314 305 278 240 138 66 89 197 58 32 269 274 46 65 282 329 352 275 260 256 223 186 163 161 186 193 199 206 201 192 190 202 238 244 220 168 141 130 127 273 271 266 265 269 284 299 308 316 320 321 324 324 322 323
155 108 87 115 125 113 99 86 51 36 82 45 31 43 41 7 5 34 49 44 12 288 289 61 26 326 342 76 185 250 317 7 100 129 107 307 289 89 66 293 287 66 243 252 260 68 80 42 310 277 245 241 235 197 175 169 174 184 195 206 207 198 193 195 223 249 220 179 160 155 148 19 328 291 272 269 277 292 302 311 318 323 327 329 327 325 327
117 110 110 117 121 114 85 52 33 32 54 57 36 33 22 348 1 13 21 43 262 272 294 48 24 281 273 252 211 221 268 349 45 87 71 307 281 118 108 317 6 55 237 249 334 61 57 303 281 264 252 243 218 184 176 180 189 195 207 213 207 197 194 199 216 235 215 192 181 179 178 344 327 300 277 280 299 306 309 313 318 322 329 332 329 330 334
111 114 117 116 96 54 29 23 25 36 52 46 35 17 347 349 11 3 315 292 279 335 289 296 315 313 300 286 240 232 246 322 29 83 89 308 321 66 61 27 12 186 230 346 56 63 231 232 232 244 254 241 202 191 187 184 183 197 218 218 208 200 204 212 212 210 203 198 200 213 253 314 319 302 279 285 302 309 312 315 315 318 326 330 331 333 337
118 104 93 84 31 18 23 5 6 39 49 32 69 95 353 329 321 287 276 277 278 299 287 317 19 352 305 301 19 292 277 22 78 84 330 326 2 56 65 266 249 245 357 31 49 230 242 238 233 244 258 241 213 209 196 174 166 184 212 213 204 198 201 207 201 196 196 201 215 234 264 301 309 296 277 283 299 307 312 320 322 323 326 328 328 332 337
178 13 40 38 1 355 26 354 350 31 58 69 179 163 175 231 234 228 234 224 173 31 327 52 100 130 259 270 19 41 291 358 34 343 305 16 27 28 222 235 263 42 44 354 312 290 273 264 260 256 243 225 216 203 184 182 196 204 205 205 203 202 204 205 205 204 206 213 223 238 265 293 302 298 292 294 301 302 308 320 324 322 324 325 325 329 335
124 84 79 83 352 335 64 67 351 2 174 206 198 178 180 199 208 212 220 181 135 146 240 166 122 126 272 293 345 29 356 39 35 259 145 90 46 262 237 224 32 43 45 317 286 266 249 248 252 244 226 215 202 183 180 196 210 210 206 204 206 206 209 213 217 216 216 218 226 239 262 285 298 299 293 295 301 301 303 314 315 311 312 318 322 326 330
102 65 84 105 50 350 50 174 242 236 195 201 205 198 198 221 234 227 208 169 163 166 166 132 124 167 248 274 330 314 347 56 57 273 274 107 194 279 356 37 300 224 185 232 251 249 244 248 250 236 219 200 180 177 191 210 216 218 224 226 214 207 209 214 217 217 218 221 230 242 259 280 293 292 286 289 297 299 302 308 306 299 303 312 318 321 324
110 68 76 122 178 241 212 192 236 266 216 221 248 241 210 207 281 257 213 164 137 126 121 115 118 254 294 352 71 262 289 28 98 256 308 98 153 321 7 1 286 256 208 207 225 235 238 238 232 217 199 182 175 180 202 224 227 228 230 227 218 214 215 217 217 219 221 225 232 241 258 279 288 285 280 284 290 293 301 304 295 289 303 318 322 322 323
86 86 80 99 144 193 198 140 59 293 277 290 316 311 188 191 248 246 203 148 121 125 149 151 135 157 263 326 49 69 277 283 213 312 4 26 190 216 152 271 281 282 252 223 220 232 240 233 207 177 176 184 184 192 221 236 239 239 236 230 226 225 223 221 221 224 227 230 235 243 259 276 281 275 271 276 281 289 300 299 284 283 310 327 327 323 322
64 76 90 94 101 227 222 125 85 302 299 304 299 261 194 199 244 232 183 154 125 88 90 90 84 117 203 358 30 11 282 247 157 106 16 234 201 174 178 228 235 236 232 228 228 232 233 212 164 165 190 204 202 212 234 245 252 253 247 238 233 231 229 225 226 230 231 233 237 243 256 269 270 265 265 271 276 285 293 289 274 280 311 328 328 322 319
44 60 89 126 146 179 172 157 176 237 257 257 242 218 189 187 223 202 171 152 113 68 70 166 126 66 51 22 357 265 268 260 117 127 247 234 181 144 184 232 233 226 228 245 249 232 215 191 166 173 195 214 218 223 236 251 261 261 251 240 233 231 229 227 230 234 236 235 237 244 257 268 266 259 258 265 274 283 288 283 274 286 312 325 327 320 315
65 92 89 2 89 149 150 145 174 216 221 226 221 203 191 203 201 171 154 139 116 103 182 184 97 79 60 262 229 156 38 352 5 253 248 236 196 176 196 219 228 216 216 244 257 240 208 200 198 192 188 195 211 224 238 251 257 255 250 242 237 234 234 235 238 241 240 236 237 246 260 265 259 251 252 257 265 275 283 286 288 299 311 320 324 319 313